Wind_Speed
15 15 15 15 14 14 14 13 13 12 10 9 9 8 7 7 7 7 7 7 7 7 8 8 8 8 9 9 8 7 7 6 6 6 5 5 5 6 6 6 6 6 6
15 15 15 15 14 14 14 14 14 13 11 10 9 8 8 8 8 7 6 7 7 7 8 8 9 9 9 9 10 9 8 8 7 7 7 7 7 7 8 8 8 8 8
15 15 14 14 14 14 14 15 13 13 12 10 8 8 8 8 8 7 7 7 6 7 8 9 9 9 10 10 10 10 10 10 9 9 9 9 9 9 9 10 10 10 10
15 15 14 14 14 14 14 14 13 11 10 10 8 8 8 8 7 7 6 6 7 7 8 8 9 9 10 10 11 11 11 11 11 11 10 10 10 10 10 11 11 11 11
16 15 14 14 14 14 14 13 13 11 10 9 8 8 8 7 7 6 6 6 7 7 8 8 9 10 10 11 12 12 13 13 12 12 12 12 12 12 12 12 12 13 13
15 14 14 15 15 14 14 14 13 12 10 9 9 8 8 7 7 7 6 6 7 7 8 9 9 10 11 11 12 13 13 13 13 14 14 14 14 14 15 15 15 15 15
14 13 14 15 14 14 13 13 12 12 11 10 9 8 8 7 7 7 7 7 7 8 9 9 10 10 11 12 13 13 13 14 14 15 15 16 16 16 16 17 17 17 18
14 14 14 14 13 13 13 13 13 12 12 11 10 10 9 8 8 7 8 8 8 8 9 10 10 11 12 13 14 14 15 15 16 16 17 18 18 19 19 19 19 20 20
14 13 13 13 13 13 13 13 13 13 13 11 10 10 10 9 8 8 8 9 9 10 10 10 11 11 12 13 15 15 16 16 17 18 18 19 20 20 21 21 21 21 21
13 13 13 13 12 13 13 13 12 12 12 11 10 10 9 8 8 8 9 9 10 11 11 11 11 11 12 13 15 16 16 17 18 19 20 20 21 22 23 24 24 23 23
14 12 12 13 13 13 13 13 12 12 12 11 10 10 9 9 9 9 10 10 11 12 12 12 12 12 12 13 15 16 17 18 19 20 21 21 22 23 24 24 24 24 24
14 14 13 13 13 14 13 13 12 12 12 11 10 10 9 9 9 10 11 11 11 12 12 13 13 14 14 15 15 17 18 19 19 20 21 22 23 23 24 24 24 24 24
15 14 13 14 14 14 14 14 13 12 12 12 11 11 10 10 10 10 11 11 12 12 13 14 14 15 15 16 17 17 19 20 21 21 22 23 24 24 24 25 25 25 25
15 15 14 15 15 15 15 14 13 13 13 12 11 11 11 11 11 12 12 12 13 14 14 15 15 15 16 17 17 18 19 20 21 22 22 23 24 24 24 24 25 25 25
16 15 15 15 16 16 15 14 14 14 14 13 13 12 12 13 13 13 13 13 14 14 15 15 16 16 17 17 18 19 19 20 21 21 21 22 23 24 24 24 24 24 25
17 16 16 15 16 16 16 15 14 14 14 14 14 13 13 14 14 13 13 13 14 14 15 15 16 17 17 18 18 19 20 20 20 21 22 22 23 23 23 23 24 25 26
18 17 16 16 16 16 16 16 16 16 15 15 15 15 15 15 14 14 14 14 15 15 16 16 17 18 18 19 19 19 20 20 21 22 22 22 23 23 23 23 24 25 26
18 17 17 17 17 17 17 17 16 16 16 17 17 16 16 16 16 16 16 16 16 17 17 17 18 19 19 20 21 21 22 22 22 22 23 23 23 23 23 24 25 26 26
20 19 18 18 18 18 17 17 17 17 18 18 18 18 18 18 17 17 17 18 18 19 19 19 20 21 21 22 22 23 23 23 23 23 23 23 24 24 24 24 24 25 25
21 20 20 19 19 19 19 19 18 18 19 19 19 19 19 19 19 19 19 19 20 20 20 21 22 23 23 24 24 24 24 24 24 24 24 24 24 24 25 25 25 25 26
23 22 22 21 21 21 21 20 20 20 20 20 20 20 20 20 21 21 21 22 22 22 22 22 23 24 24 24 25 25 26 25 25 25 25 25 25 26 26 27 27 27 28
24 24 24 23 23 23 23 22 22 22 22 22 22 23 23 23 23 24 24 24 24 24 24 24 25 25 26 26 26 26 26 26 26 26 26 26 27 28 28 28 28 28 29
27 26 25 25 25 25 24 24 24 24 25 25 25 25 25 25 25 26 26 26 26 26 26 26 26 26 27 27 27 27 27 27 27 27 27 27 28 29 29 29 30 30 31
29 29 28 28 28 27 27 27 27 27 28 27 27 27 27 27 28 28 27 28 28 28 28 28 28 28 28 28 28 28 28 28 28 28 29 29 30 30 30 31 31 32 32
31 30 30 30 30 30 30 29 29 30 30 30 29 29 29 30 30 30 29 30 30 30 30 30 30 30 29 30 30 30 30 29 30 30 30 31 31 31 32 33 33 33 33
32 32 31 32 31 31 31 31 31 31 31 31 31 31 31 31 32 32 32 32 32 32 32 32 32 31 31 31 31 31 31 31 31 32 32 32 33 33 33 34 34 33 33
Wind_Direction
342 345 345 347 348 347 342 341 342 339 335 325 313 305 299 295 293 284 272 274 272 263 250 243 245 243 238 234 234 237 236 238 241 246 253 265 262 265 273 280 285 287 290
337 340 342 343 344 344 342 337 335 333 328 325 318 306 292 288 291 284 275 271 267 261 253 244 245 244 242 241 238 240 241 246 249 251 255 264 265 265 275 281 284 286 288
332 335 338 341 341 339 339 336 332 329 324 320 314 309 297 291 286 283 277 272 266 259 251 246 247 248 246 246 243 243 248 251 253 254 259 267 271 274 279 281 285 289 288
330 331 336 339 339 337 336 334 331 327 324 325 320 308 302 298 294 289 282 275 271 264 253 250 251 251 250 248 246 247 252 254 257 260 264 269 272 275 278 282 286 289 289
327 328 331 332 333 333 331 330 331 328 323 321 319 308 301 299 297 294 285 278 274 264 256 252 254 252 253 253 250 251 254 257 260 264 267 272 276 279 281 284 285 285 287
323 324 324 324 324 327 328 328 328 328 323 318 317 309 300 298 295 293 294 281 274 269 265 265 260 257 257 257 254 252 256 261 263 266 269 272 278 281 282 284 284 283 284
318 321 321 320 321 323 324 326 325 324 320 314 309 306 301 297 295 292 290 284 278 272 271 272 268 263 260 259 258 258 261 264 267 269 271 275 279 280 281 283 284 283 284
317 321 321 322 322 322 323 323 323 321 318 311 302 299 297 295 294 291 288 284 283 282 283 279 274 268 265 262 260 262 264 266 268 271 273 276 278 281 281 282 284 284 284
316 320 322 322 321 320 321 321 320 320 319 313 306 300 294 291 289 290 290 285 285 286 286 283 280 275 269 269 268 268 270 271 273 275 276 277 279 280 281 282 283 285 285
314 319 321 322 322 322 322 321 320 323 322 318 311 303 300 296 297 297 294 288 287 289 288 288 282 279 277 274 274 273 273 274 275 277 282 282 282 282 282 283 283 283 284
309 316 320 322 323 324 324 322 318 316 321 318 312 306 301 295 294 295 294 293 292 290 288 284 283 283 282 282 281 279 278 278 278 279 282 286 287 286 284 283 283 283 283
305 307 314 316 318 320 322 322 322 321 320 319 316 315 311 303 297 295 294 291 294 295 288 285 285 286 286 286 288 286 282 281 281 282 284 286 288 288 287 285 283 283 283
299 303 309 309 312 316 318 316 316 318 319 318 318 317 316 312 307 302 299 295 294 296 294 291 290 288 287 288 290 290 286 285 285 286 286 287 289 288 287 287 286 285 283
296 297 300 304 308 313 315 316 315 315 316 316 313 313 315 313 309 304 301 298 295 293 292 291 291 290 289 290 291 291 290 288 287 289 290 290 292 291 289 287 287 287 286
291 290 293 299 303 307 309 311 312 314 312 312 309 308 309 311 309 307 303 301 300 295 293 292 292 291 291 293 293 293 292 292 292 293 295 296 295 295 292 288 287 288 287
285 286 289 294 298 301 303 305 306 309 310 309 308 305 307 311 311 309 306 304 302 301 299 298 297 297 296 296 296 295 294 294 294 295 295 295 295 295 294 290 289 289 289
282 281 284 288 293 298 299 298 301 303 305 307 308 305 306 309 310 311 310 308 306 302 299 298 298 299 299 298 297 297 296 296 297 296 296 295 295 295 294 291 290 291 291
278 279 280 282 288 295 296 295 296 300 302 304 305 304 303 304 307 310 308 305 305 305 304 302 301 301 302 302 299 297 296 296 297 296 295 295 296 297 296 293 292 292 292
273 274 276 279 284 290 291 293 295 297 299 302 303 302 302 304 306 307 307 304 303 303 301 300 301 301 301 300 298 296 296 296 297 297 295 294 295 296 297 296 296 295 293
272 274 277 278 280 284 288 288 291 292 295 298 300 300 301 303 306 307 307 306 304 303 302 302 301 301 300 300 298 298 298 298 298 296 295 294 294 295 296 295 296 296 295
270 272 275 277 278 280 283 285 287 289 292 295 298 300 300 301 303 304 306 307 306 304 304 304 303 303 302 301 300 300 300 298 298 297 295 295 296 296 296 294 294 295 295
268 270 273 274 275 276 278 280 283 286 289 292 294 296 297 298 299 300 301 303 303 302 302 302 302 302 301 300 300 300 300 299 298 296 295 294 294 294 295 295 294 295 295
267 268 270 272 273 274 276 277 280 282 286 289 291 293 294 295 295 297 298 298 300 300 300 300 301 301 300 300 300 300 300 300 298 297 295 295 294 295 295 294 294 295 295
266 267 268 271 271 273 274 277 279 281 284 286 289 290 290 291 294 295 295 295 296 297 298 298 299 299 299 298 299 299 299 298 297 297 296 296 296 296 295 294 294 295 296
265 265 267 269 271 272 274 275 278 279 281 284 287 289 289 290 291 292 293 294 294 295 295 295 296 297 297 297 298 299 298 297 296 296 295 295 296 296 296 296 296 295 296
262 263 265 268 268 270 272 275 277 279 281 283 287 290 290 289 289 290 291 291 292 292 293 293 294 295 295 296 297 297 297 296 296 296 296 296 296 296 296 296 296 296 296
Height
5915 5913 5911 5909 5908 5906 5904 5902 5901 5900 5899 5898 5898 5897 5898 5898 5898 5898 5898 5898 5898 5899 5900 5901 5902 5903 5904 5905 5906 5907 5908 5908 5909 5910 5910 5910 5910 5911 5911 5911 5911 5911 5910
5915 5912 5911 5909 5907 5905 5904 5902 5900 5899 5898 5897 5897 5896 5896 5896 5896 5896 5896 5896 5897 5897 5899 5900 5901 5902 5903 5904 5905 5906 5907 5907 5908 5908 5909 5909 5910 5909 5910 5909 5909 5909 5909
5914 5912 5910 5908 5906 5905 5903 5901 5899 5898 5896 5896 5895 5895 5895 5895 5895 5895 5895 5895 5895 5896 5897 5898 5899 5900 5901 5902 5903 5904 5905 5906 5906 5907 5907 5907 5907 5907 5908 5907 5907 5907 5907
5912 5910 5909 5907 5905 5903 5902 5900 5898 5897 5895 5895 5894 5894 5893 5893 5893 5894 5894 5894 5894 5895 5896 5897 5898 5899 5899 5900 5901 5902 5903 5904 5904 5904 5905 5905 5905 5905 5905 5905 5905 5904 5904
5911 5909 5907 5906 5904 5902 5901 5899 5897 5895 5895 5894 5893 5892 5893 5892 5892 5892 5893 5893 5893 5893 5894 5895 5896 5897 5897 5898 5899 5900 5900 5901 5902 5902 5902 5902 5903 5903 5903 5902 5902 5902 5901
5910 5908 5906 5904 5903 5901 5899 5898 5896 5895 5894 5893 5892 5891 5891 5891 5891 5891 5891 5891 5892 5892 5893 5893 5894 5894 5895 5896 5896 5897 5898 5898 5899 5899 5899 5899 5899 5899 5899 5899 5899 5898 5898
5908 5906 5905 5902 5901 5899 5898 5896 5895 5894 5892 5892 5891 5890 5890 5890 5889 5890 5890 5890 5890 5891 5891 5891 5891 5892 5892 5893 5894 5894 5895 5895 5896 5896 5896 5896 5896 5895 5895 5895 5895 5894 5894
5907 5905 5903 5901 5899 5897 5896 5895 5894 5892 5891 5890 5889 5889 5888 5888 5888 5888 5888 5889 5889 5889 5889 5889 5889 5889 5889 5890 5890 5891 5891 5892 5892 5892 5892 5892 5892 5891 5891 5891 5891 5890 5889
5905 5903 5901 5899 5897 5896 5894 5893 5892 5891 5890 5888 5888 5887 5886 5886 5885 5886 5887 5887 5887 5887 5887 5887 5887 5887 5887 5887 5887 5888 5888 5888 5888 5888 5888 5888 5887 5887 5886 5886 5885 5885 5884
5902 5901 5899 5897 5896 5895 5893 5892 5890 5889 5888 5887 5886 5886 5885 5885 5884 5885 5885 5885 5885 5885 5884 5884 5884 5884 5884 5884 5884 5884 5884 5885 5885 5884 5884 5883 5882 5882 5881 5880 5880 5879 5879
5899 5898 5897 5896 5895 5894 5892 5891 5889 5888 5887 5886 5885 5885 5884 5883 5883 5883 5883 5883 5883 5882 5882 5882 5882 5882 5882 5881 5881 5881 5880 5880 5880 5880 5879 5879 5877 5876 5875 5874 5874 5873 5872
5897 5896 5896 5895 5894 5893 5891 5890 5888 5887 5886 5885 5885 5884 5883 5882 5882 5881 5881 5880 5880 5880 5879 5879 5879 5879 5878 5878 5877 5877 5876 5876 5875 5875 5874 5873 5872 5871 5870 5868 5868 5867 5866
5896 5895 5894 5894 5893 5891 5890 5889 5888 5887 5886 5884 5883 5883 5882 5881 5880 5879 5878 5878 5877 5877 5876 5876 5876 5875 5875 5875 5874 5873 5872 5871 5871 5870 5869 5868 5866 5865 5864 5863 5862 5861 5860
5894 5893 5893 5892 5891 5890 5889 5887 5886 5885 5884 5883 5882 5881 5880 5879 5878 5877 5876 5875 5875 5874 5874 5873 5872 5872 5871 5871 5870 5869 5868 5867 5866 5864 5863 5862 5860 5859 5858 5857 5855 5854 5853
5891 5891 5891 5890 5889 5888 5887 5885 5884 5883 5882 5881 5880 5879 5878 5877 5875 5874 5873 5872 5872 5871 5871 5870 5869 5868 5867 5866 5865 5864 5863 5862 5861 5859 5858 5856 5855 5853 5852 5850 5849 5848 5847
5889 5888 5888 5887 5886 5885 5884 5883 5882 5881 5880 5879 5878 5877 5876 5875 5873 5871 5870 5870 5869 5868 5867 5866 5865 5864 5863 5862 5861 5860 5858 5857 5856 5854 5853 5851 5850 5848 5846 5845 5843 5842 5840
5885 5885 5885 5885 5884 5882 5881 5880 5879 5878 5877 5876 5875 5874 5873 5872 5870 5869 5868 5867 5866 5865 5864 5863 5862 5861 5859 5858 5856 5855 5854 5852 5851 5849 5848 5846 5844 5842 5840 5839 5837 5835 5834
5881 5881 5881 5881 5880 5879 5878 5877 5876 5875 5875 5874 5873 5872 5871 5870 5868 5867 5865 5864 5863 5862 5860 5859 5858 5857 5855 5853 5852 5850 5849 5847 5846 5844 5842 5841 5839 5837 5835 5833 5831 5829 5827
5877 5876 5877 5877 5877 5876 5874 5874 5873 5873 5872 5871 5870 5869 5868 5866 5865 5864 5862 5861 5860 5858 5857 5855 5854 5852 5851 5849 5847 5845 5844 5842 5840 5839 5837 5835 5833 5831 5829 5827 5825 5823 5821
5872 5872 5872 5873 5873 5872 5871 5870 5870 5869 5869 5868 5867 5865 5864 5863 5862 5860 5859 5857 5856 5854 5852 5851 5849 5848 5846 5844 5842 5840 5838 5836 5834 5832 5831 5829 5827 5825 5823 5821 5819 5817 5815
5868 5868 5868 5869 5868 5868 5868 5867 5866 5866 5865 5864 5863 5862 5860 5859 5858 5857 5855 5853 5852 5850 5848 5846 5844 5842 5840 5838 5836 5834 5832 5830 5828 5826 5824 5822 5821 5819 5817 5815 5813 5811 5808
5863 5863 5863 5863 5863 5863 5862 5862 5862 5861 5860 5859 5858 5857 5856 5855 5853 5852 5850 5849 5847 5845 5843 5841 5839 5837 5835 5833 5830 5828 5826 5824 5822 5820 5818 5816 5814 5812 5810 5808 5805 5803 5801
5857 5857 5857 5857 5857 5857 5857 5856 5856 5856 5855 5854 5853 5852 5851 5849 5848 5846 5845 5843 5841 5839 5837 5835 5833 5831 5829 5827 5824 5822 5820 5817 5815 5813 5811 5809 5807 5805 5803 5800 5798 5796 5793
5851 5851 5851 5851 5851 5851 5850 5850 5850 5850 5849 5848 5847 5846 5845 5843 5842 5840 5839 5837 5835 5833 5831 5829 5827 5825 5822 5820 5818 5815 5813 5810 5808 5806 5804 5802 5799 5797 5795 5792 5790 5787 5784
5844 5844 5844 5844 5844 5844 5844 5843 5843 5843 5842 5841 5840 5839 5838 5836 5835 5833 5831 5830 5828 5826 5824 5822 5820 5817 5815 5813 5810 5808 5806 5803 5801 5798 5796 5794 5791 5789 5786 5784 5781 5778 5776
5836 5836 5837 5836 5836 5835 5836 5836 5836 5835 5835 5834 5833 5832 5830 5829 5827 5825 5823 5821 5820 5818 5816 5814 5812 5809 5807 5805 5802 5800 5797 5795 5793 5790 5788 5785 5783 5780 5778 5775 5772 5769 5766